• Join FlightAware (Why Join?)
  • Login
  • US Flag 
11:29PM EST


 

Airport Tracker/Info


-or-


 

Live Flight TrackerFlight Track Log ✈ FLG4262 ✈ 24-Nov-2013 ✈ KDTW - KBGM

Flight Track Log - Related Links

Times and Time Zones

All times are in EST time to prevent confusion due to time zone crossing. See the FLG4262 flight status page for this flight to view local times or setup timezone preferences in your user account.

Time Position Orientation Groundspeed Altitude Reporting Facility
EST Latitude Longitude Course Direction KTS MPH feet Rate Location/Type
03:51PM 42.2008 -83.3522 165° South 171 197 1,500  Level Cleveland Center
03:53PM 42.1214 -83.3242 165° South 238 274 6,100 2,760 Climbing Cleveland Center
03:53PM 42.1253 -83.3272 330° Northwest 209 241 5,900 2,220 Descending Cleveland Center
03:54PM 42.1169 -83.2475 98° East 263 303 8,100 2,220 Climbing Cleveland Center
03:54PM 42.1181 -83.2444 64° Northeast 255 293 8,200 2,280 Climbing Cleveland Center
03:55PM 42.1572 -83.1394 63° Northeast 278 320 10,900 1,920 Climbing Cleveland Center
03:56PM 42.1922 -83.0261 67° East 326 375 12,200 1,200 Climbing Cleveland Center
03:57PM 42.2311 -82.9003 67° East 362 417 13,500 1,200 Climbing Cleveland Center
03:58PM 42.2717 -82.7681 67° East 380 437 14,800 1,200 Climbing Cleveland Center
03:59PM 42.3133 -82.6331 67° East 389 448 16,100 1,380 Climbing Cleveland Center
04:00PM 42.3608 -82.4686 69° East 392 451 17,700 1,080 Climbing Cleveland Center
04:01PM 42.3622 -82.3092 89° East 426 490 18,400 840 Climbing Cleveland Center
04:02PM 42.3547 -82.1478 94° East 431 496 19,500 840 Climbing Cleveland Center
04:03PM 42.3478 -81.9819 93° East 449 517 20,200 780 Climbing Cleveland Center
04:04PM 42.3386 -81.7708 93° East 473 544 21,200 840 Climbing Cleveland Center
04:05PM 42.3294 -81.5883 94° East 481 554 22,000 720 Climbing Cleveland Center
04:06PM 42.3211 -81.4017 93° East 489 563 22,800 780 Climbing Cleveland Center
04:07PM 42.3119 -81.2153 94° East 491 565 23,700 780 Climbing Cleveland Center
04:08PM 42.3028 -81.0267 94° East 495 570 24,500 720 Climbing Cleveland Center
04:09PM 42.2925 -80.8383 94° East 497 572 25,300 720 Climbing Cleveland Center
04:10PM 42.2828 -80.6514 94° East 495 570 26,100 720 Climbing Cleveland Center
04:11PM 42.2722 -80.4617 94° East 500 575 26,900 420 Climbing Cleveland Center
04:12PM 42.2600 -80.2400 94° East 505 581 27,000  Climbing Cleveland Center
04:13PM 42.2481 -80.0428 95° East 519 597 27,000  Level Cleveland Center
04:14PM 42.2350 -79.8375 95° East 524 603 27,000  Level Cleveland Center
04:15PM 42.2222 -79.6389 95° East 532 612 27,000  Level Cleveland Center
04:17PM 42.2094 -79.4414 95° East 530 610 27,000  Level Cleveland Center
04:18PM 42.1967 -79.2453 95° East 527 606 27,000  Level Cleveland Center
04:19PM 42.1900 -79.0503 93° East 523 602 27,000  Level Cleveland Center
04:20PM 42.1931 -78.8594 89° East 512 589 27,000 -540 Level Cleveland Center
04:21PM 42.1981 -78.6333 88° East 507 583 25,900 -1,620 Descending Cleveland Center
04:22PM 42.2003 -78.4478 89° East 502 578 23,700 -2,280 Descending Cleveland Center
04:23PM 42.2014 -78.2719 89° East 474 545 21,200 -2,460 Descending Cleveland Center
04:24PM 42.2036 -78.1128 89° East 441 507 18,700 -1,980 Descending Cleveland Center
04:25PM 42.2056 -77.9561 89° East 426 490 17,200 -780 Descending Cleveland Center
04:26PM 42.2078 -77.7828 89° East 393 452 17,100 -60 Descending Cleveland Center
04:27PM 42.2092 -77.6386 89° East 389 448 17,100  Level Cleveland Center
04:28PM 42.2092 -77.4931 90° East 391 450 17,100  Level Cleveland Center
04:29PM 42.2103 -77.3483 89° East 391 450 17,100  Level Cleveland Center
04:30PM 42.2111 -77.2028 90° East 391 450 17,100 -180 Level Cleveland Center
04:31PM 42.2103 -77.0264 90° East 394 453 16,800 -1,200 Descending Cleveland Center
04:32PM 42.2114 -76.8883 89° East 383 441 14,700 -1,920 Descending New York Center
04:33PM 42.2208 -76.7856 83° East 368 423 13,100 -1,920 Descending New York Center
04:34PM 42.2556 -76.6739 67° East 325 374 10,900 -2,340 Descending New York Center
04:35PM 42.2611 -76.5622 86° East 292 336 8,500 -1,860 Descending New York Center
04:36PM 42.2389 -76.4622 107° East 276 318 7,200 -780 Descending New York Center
04:37PM 42.2017 -76.3667 118° Southeast 276 318 7,000 -180 Descending New York Center
04:38PM 42.1644 -76.2739 118° Southeast 282 325 6,900 -840 Descending New York Center
04:39PM 42.1247 -76.1867 122° Southeast 282 325 5,400 -1,500 Descending New York Center
04:40PM 42.0869 -76.1025 121° Southeast 277 319 4,000 -720 Descending New York Center
04:41PM 42.0508 -76.0244 122° Southeast 264 304 4,000  Level New York Center
04:43PM 41.9892 -75.8575 116° Southeast 252 290 4,000 -60 Level New York Center
04:44PM 42.0219 -75.8211 40° Northeast 155 178 3,900 -60 Descending New York Center
04:45PM 42.0539 -75.8542 322° Northwest 109 125 3,900  Level New York Center
04:46PM 42.0942 -75.8881 328° Northwest 130 150 3,900 -240 Level New York Center
04:47PM 42.1264 -75.9158 327° Northwest 144 166 3,500 -420 Descending New York Center
04:49PM 42.2000 -75.9667 338° Northwest  Level FlightAware Approximate
04:56PM 42.2084 -75.9796 338° Northwest  Level Estimated
04:57PM 42.2084 -75.9796 338° Northwest  Level Estimated
04:58PM 42.2084 -75.9796 338° Northwest  Level Estimated